Flag for Spain Weather past 2 weeks in Pamplona, Spain

Now
79 °F

Scattered clouds.


Feels Like: 79 °F
Forecast: 58 / 80 °F
Wind: 14 mph from Southeast

Location: Pamplona / Noain

Current Time: Sep 19, 2014 at 4:53:28 PM

Latest Report: Sep 19, 2014 at 4:30 PM


Visibility: N/A

Pressure: 29.89 "Hg

Humidity: 34%

Dew point: 48 °F

Location of PamplonaLocation

Historic Weather in Pamplona — Graph

°F

Pamplona temperature yesterday

Maximum temperature yesterday: 81 °F (at 4:30 PM)
Minimum temperature yesterday: 64 °F (at 5:30 AM)
Average temperature yesterday: 73 °F

Past Weeks' High & Low Weather Summary

 TemperatureHumidityPressure
High91 °F (Sep 7, 4:30 PM)100% (Sep 6, 6:30 AM)30.09 "Hg (Sep 6, 6:30 AM)
Low54 °F (Sep 13, 7:00 AM)20% (Sep 13, 2:30 PM)29.68 "Hg (Sep 16, 6:30 PM)
Average72 °F64%29.94 "Hg
* Reported Sep 4 3:00 PM — Sep 19 3:30 PM, Pamplona, Weather by CustomWeather, © 2014

Note: Actual official high and low records may vary slightly from our data, if they occured in-between our weather recording intervals... More about our weather records

Advertising

Pamplona weather history for previous 24 hours

 ConditionsComfort  
Time TempWeatherWind HumidityBarometerVisibility
3:30 PM
Sep 19
79 °FScattered clouds.14 mph34%29.89 "HgN/A
3:00 PM79 °FScattered clouds.13 mph37%29.89 "HgN/A
2:30 PM77 °FScattered clouds.14 mph42%29.89 "HgN/A
2:00 PM75 °FScattered clouds.15 mph44%29.92 "HgN/A
1:30 PM75 °FScattered clouds.17 mph47%29.92 "HgN/A
1:00 PM75 °FPassing clouds.15 mph47%29.92 "HgN/A
12:30 PM73 °FScattered clouds.15 mph47%29.92 "HgN/A
12:00 PM73 °FScattered clouds.16 mph50%29.92 "HgN/A
11:30 AM72 °FScattered clouds.13 mph50%29.92 "HgN/A
11:00 AM70 °FScattered clouds.16 mph57%29.92 "HgN/A
10:30 AM70 °FPassing clouds.15 mph57%29.92 "HgN/A
10:00 AM70 °FPassing clouds.7 mph60%29.89 "HgN/A
9:30 AM70 °FPassing clouds.7 mph60%29.89 "HgN/A
9:00 AM64 °FSunny.1 mph73%29.89 "Hg10 mi
8:30 AM64 °FClear.2 mph68%29.86 "Hg10 mi
8:00 AM64 °FClear.2 mph64%29.86 "Hg10 mi
7:30 AM64 °FClear.13 mph68%29.86 "Hg10 mi
7:00 AM64 °FClear.12 mph68%29.83 "Hg10 mi
6:30 AM64 °FClear.1 mph78%29.83 "Hg10 mi
6:00 AM64 °FClear.1 mph78%29.83 "Hg10 mi
5:30 AM66 °FClear.1 mph68%29.83 "Hg10 mi
12:00 AM72 °FPassing clouds.6 mph44%29.83 "HgN/A
11:30 PM
Sep 18
70 °FPassing clouds.3 mph46%29.83 "HgN/A
11:00 PM72 °FPassing clouds.5 mph41%29.83 "HgN/A
10:30 PM72 °FPassing clouds.2 mph44%29.80 "HgN/A
10:00 PM73 °FPassing clouds.1 mph38%29.80 "HgN/A
9:00 PM75 °FPassing clouds.9 mph34%29.77 "HgN/A
8:30 PM77 °FPassing clouds.13 mph32%29.77 "HgN/A
8:00 PM77 °FScattered clouds.13 mph32%29.77 "HgN/A
7:30 PM79 °FScattered clouds.12 mph32%29.77 "HgN/A
7:00 PM79 °FScattered clouds.14 mph34%29.77 "HgN/A
6:30 PM79 °FScattered clouds.9 mph37%29.74 "HgN/A
6:00 PM79 °FScattered clouds.10 mph37%29.74 "HgN/A
5:30 PM79 °FScattered clouds.14 mph37%29.77 "HgN/A
5:00 PM79 °FScattered clouds.9 mph37%29.77 "HgN/A
4:30 PM81 °FScattered clouds.13 mph34%29.77 "HgN/A
4:00 PM77 °FScattered clouds.12 mph39%29.77 "HgN/A
Weather by CustomWeather, © 2014

See weather overviewHow to use our weather pages